Weather in Shchigry

Russia / Kursk Oblast     51°52′34″N   36°54′43″E
temp.,
°C
wind,
m/s
gust,
m/s
humid.,
%
clouds,
%
prec.,
mm/h
press.,
hPa
HPBL,
m
28 september, tue
tue2800:00+7n4893100 0.1 1022297
03:00+8n489299 0.2 1022377
06:00+8n4792100 0.2 1023369
09:00+8ne4791100 0.6 1024543
12:00+8ne577999 0.1 1026758
15:00+8ne5673100 0.2 1027812
18:00+7ne5783100 0.1 1029715
21:00+6ne5982100 0.1 1030637
29 september, wed
wed2900:00+6ene4779100 0.0 1032563
03:00+6ne4777100 0.0 1032398
06:00+2ne38875 0.0 1034177
09:00+6ne47703 0.0 1034417
12:00+10ene56505 0.0 10341101
15:00+11ne45455 0.0 10331254
18:00+8ne34603 0.0 103350
21:00+5ne34696 0.0 103453
30 september, thu
thu3000:00+4ne2274100 0.0 103423
03:00+4nne22775 0.0 103512
06:00+3nne22815 0.0 103521
09:00+7ne23645 0.0 1035262
12:00+11ene33495 0.0 10351021
15:00+12ene23475 0.0 10341304
18:00+9ne23625 0.0 103423
21:00+7ene22701 0.0 103514
1 october, fri
fri100:00+6e22743 0.0 103610
03:00+5ene11775 0.0 103610
06:00+4ene11805 0.0 103610
09:00+8e11645 0.0 1037189
12:00+12ese22515 0.0 1036936
15:00+13ese11465 0.0 10351219
18:00+10e11580 0.0 103410
21:00+8ese12650 0.0 103510
2 october, sat
sat200:00+7se22690 0.0 103510
03:00+6sse11730 0.0 103510
06:00+5sse22751 0.0 103510
09:00+9sse23605 0.0 1035201
12:00+14sse33485 0.0 10341002
15:00+15sse33465 0.0 10331289
18:00+11se22605 0.0 103214
21:00+9se34705 0.0 103345